Theta_e
310 310 311 311 312 312 312 313 313 313 314 314 315 315 315 316 310 302 300 309 312 316 311 300 299 297 297 294 294 292 282 279 281 283 285 289 288 291 293 289 291 294 295 298 300
309 310 310 311 311 312 312 312 313 313 313 314 314 314 315 315 299 297 311 317 317 314 301 296 294 295 291 291 292 286 282 282 287 288 287 289 288 290 289 289 290 292 296 298 302
309 309 309 310 310 311 312 312 312 313 313 313 313 314 315 309 294 294 314 316 315 309 301 299 296 293 289 290 289 289 284 287 288 290 290 289 289 290 288 286 289 289 291 299 301
308 308 309 309 310 311 312 311 312 313 312 312 312 314 315 300 285 298 313 315 314 305 301 297 293 289 286 286 289 284 288 289 291 291 290 288 291 288 288 289 293 292 295 300 300
307 308 309 309 310 311 311 311 312 312 312 312 313 315 302 292 292 302 311 310 304 303 297 295 291 289 286 287 288 286 288 290 291 291 291 291 289 288 288 294 297 299 299 300 300
307 308 308 309 310 310 310 311 312 312 311 312 313 312 296 288 300 303 304 306 303 300 298 296 293 292 288 288 287 289 289 289 290 291 291 290 289 290 294 298 299 298 299 300 305
307 308 308 309 309 309 310 311 312 311 311 312 313 305 294 291 300 301 304 303 304 301 297 298 297 293 291 288 292 290 285 286 288 290 290 292 287 289 296 298 297 299 301 303 305
308 308 308 309 309 309 310 311 311 310 311 312 312 297 290 301 298 299 301 301 304 303 301 301 299 294 292 293 287 283 283 280 286 290 291 290 283 292 296 297 296 299 301 303 303
308 308 308 309 309 309 310 310 307 307 311 311 297 292 288 303 295 298 299 298 301 301 301 303 298 291 289 282 279 278 276 276 283 290 290 289 284 292 296 295 295 297 298 299 302
309 308 308 308 308 309 308 307 304 301 297 301 296 288 292 289 294 296 299 300 298 298 296 294 290 285 283 280 274 275 274 279 280 286 289 287 287 292 294 294 293 294 296 297 298
309 308 308 307 308 308 298 290 288 286 290 285 285 287 289 294 296 296 298 297 297 292 287 289 285 279 280 282 279 275 273 274 280 288 287 285 287 290 292 293 292 293 294 294 296
309 308 307 307 308 304 294 287 287 288 282 286 288 290 292 292 290 294 298 291 290 285 286 283 280 286 287 285 283 277 276 275 281 286 287 282 283 290 291 292 292 291 292 292 294
310 307 306 306 304 297 293 292 296 293 282 285 288 288 289 293 289 290 294 291 287 285 284 281 284 289 288 286 285 284 282 278 281 282 285 283 283 284 291 292 293 293 292 292 293
309 306 305 305 295 293 291 295 296 293 278 281 284 288 290 291 286 293 294 291 287 284 284 283 287 288 286 286 286 282 287 286 285 283 276 282 274 282 287 288 291 291 291 290 292
308 305 304 302 292 288 293 296 293 290 273 282 283 291 290 287 286 289 293 290 284 284 283 281 283 284 285 285 286 283 286 286 285 282 279 279 277 283 285 285 288 289 290 289 291
307 305 304 295 292 292 295 291 289 279 272 279 283 283 284 285 286 289 288 291 288 285 284 283 286 285 284 285 285 287 285 285 282 279 271 277 277 278 281 286 287 289 288 288 288
306 303 298 295 287 293 291 286 278 274 278 274 279 283 282 281 283 285 284 281 277 273 272 281 283 285 286 283 285 284 281 275 272 271 271 277 277 278 285 289 288 287 287 286 287
304 299 296 294 292 291 286 280 271 270 270 279 281 281 279 281 281 282 282 277 281 278 271 272 273 282 285 283 282 282 281 275 270 270 272 277 275 279 285 290 289 287 287 286 285
301 291 290 291 292 287 282 271 275 272 279 279 279 275 274 280 279 279 277 276 279 281 274 272 274 283 285 285 284 281 278 281 276 268 270 274 277 283 284 285 285 285 284 284 284
291 289 288 291 289 284 277 276 272 279 280 280 274 275 268 272 276 276 276 280 281 282 282 279 274 281 285 285 284 283 284 277 276 268 266 272 275 277 281 282 283 282 283 283 283
288 283 289 290 286 281 275 271 271 280 281 280 276 272 275 273 271 275 276 280 280 281 282 281 278 277 282 279 278 281 280 279 278 277 272 270 274 280 282 284 283 282 283 283 282
288 278 289 287 278 263 270 270 282 279 282 280 280 279 278 277 275 275 278 279 281 282 280 282 281 273 276 280 283 281 280 280 275 273 274 275 274 284 283 284 284 282 282 282 282
284 281 291 286 275 269 269 270 278 278 280 280 279 280 280 278 274 278 278 283 281 283 282 283 273 268 272 276 280 280 282 282 279 278 274 272 274 283 283 283 283 281 281 281 281
287 282 284 285 280 275 272 270 272 280 280 281 281 281 279 276 274 274 279 282 282 284 289 286 278 274 271 274 277 278 280 282 280 273 275 275 275 280 281 281 281 281 281 280 280
286 285 285 277 276 278 279 276 273 273 280 281 279 280 279 273 274 274 275 280 281 285 282 279 270 272 277 278 278 279 280 280 279 279 276 276 276 279 282 283 282 282 280 280 280
286 285 286 283 281 280 280 276 278 278 279 277 277 279 279 276 278 275 279 278 278 279 280 279 267 269 267 272 273 273 277 278 280 281 279 280 280 283 283 283 280 281 281 280 280
292 291 293 284 283 281 278 280 280 280 280 282 280 280 279 280 279 279 280 280 280 278 273 272 268 264 265 265 267 269 271 274 277 278 280 277 282 283 281 282 283 282 282 282 282
Wind_Speed
5 6 8 9 10 11 12 12 13 12 13 13 13 13 12 11 7 7 13 9 10 16 7 5 7 7 6 6 6 2 6 4 5 5 8 5 7 4 4 6 4 5 6 5 17
4 5 7 9 10 11 11 12 12 13 13 13 12 11 11 8 3 12 11 15 14 16 5 8 6 7 6 6 5 7 5 2 2 3 5 10 6 13 5 10 8 12 7 11 16
3 5 7 9 10 11 12 12 13 13 13 12 11 10 10 3 5 5 14 13 13 14 3 2 3 5 7 5 7 4 4 2 3 6 4 5 8 3 5 6 9 12 13 15 18
2 4 7 8 10 11 12 12 13 13 13 11 9 9 8 2 4 4 12 12 13 11 5 9 8 6 6 6 4 7 3 2 5 4 4 5 6 6 5 12 11 15 14 12 16
2 4 6 8 9 10 11 12 12 12 11 9 9 9 2 7 3 4 9 10 5 6 11 5 8 4 5 4 3 6 1 3 7 7 3 4 8 7 6 15 19 18 12 11 12
1 3 6 8 10 10 11 12 12 11 9 8 8 6 3 7 3 5 6 5 6 5 8 8 4 4 7 4 5 1 2 5 5 9 2 12 5 3 16 23 20 8 6 6 5
2 2 6 8 9 10 12 12 12 9 7 7 7 2 9 4 1 3 5 3 3 2 4 3 4 4 4 4 1 0 1 5 4 11 3 15 4 18 17 18 23 10 11 8 10
3 3 5 8 9 11 12 12 10 6 6 6 6 3 4 1 1 5 4 3 5 4 5 3 5 7 5 4 5 4 5 4 5 13 7 10 10 16 21 17 16 14 11 8 13
4 3 6 8 10 11 12 10 4 4 4 6 4 4 3 2 4 4 3 2 2 3 4 3 4 5 4 4 5 8 1 4 7 5 8 11 9 14 16 13 14 13 14 14 16
4 3 5 7 10 12 10 2 3 3 4 1 2 5 5 3 4 4 3 2 3 1 3 7 6 5 6 6 1 3 3 2 3 6 6 12 10 11 15 15 14 14 15 16 16
5 3 5 7 10 10 4 4 5 5 10 4 1 3 2 6 3 4 3 1 1 7 4 4 8 2 1 2 4 7 4 2 4 3 4 7 9 10 14 15 16 13 16 21 19
6 3 4 7 9 5 4 5 1 1 7 4 2 3 1 1 2 7 3 2 4 3 2 7 2 3 4 5 4 3 3 3 5 3 1 5 7 6 11 12 12 16 19 18 19
7 3 4 6 2 5 4 3 2 1 6 3 2 3 3 3 2 7 5 1 4 4 4 5 1 5 0 2 3 3 4 3 5 2 2 2 8 6 2 9 13 15 14 18 17
8 2 4 5 3 1 2 2 1 1 7 6 4 4 3 1 4 2 3 2 5 3 3 3 2 2 1 3 2 4 4 5 3 3 1 2 2 5 6 8 12 12 12 11 13
8 3 6 3 6 2 2 0 0 3 4 2 4 1 3 4 2 4 3 4 3 2 3 1 3 1 2 4 2 8 1 5 5 2 2 4 3 4 7 11 11 11 12 11 12
8 5 5 4 3 1 2 2 3 9 4 2 2 3 2 6 5 6 4 6 2 3 3 2 2 2 2 2 3 6 4 3 4 2 4 4 3 3 3 4 7 10 9 9 11
8 7 5 2 4 1 1 4 8 6 5 5 1 3 3 4 4 7 5 6 3 6 5 6 2 3 1 3 2 4 3 4 7 6 3 4 1 4 3 1 1 6 9 8 8
13 7 6 3 3 3 3 8 6 2 6 3 1 2 4 4 4 6 3 3 5 4 4 3 7 2 3 1 1 3 2 5 2 2 5 5 1 0 3 5 1 3 3 5 6
13 2 3 3 3 2 7 6 9 8 6 8 3 5 3 1 2 3 3 2 0 3 4 3 5 3 2 2 2 3 4 1 5 2 3 3 2 5 1 3 1 1 4 6 6
4 3 2 5 3 4 7 3 2 2 2 2 4 2 4 3 2 3 1 2 1 2 2 3 4 1 3 0 2 2 3 3 3 4 5 5 3 4 6 7 6 4 4 2 4
4 5 3 3 1 6 4 6 4 4 2 2 5 4 3 4 2 1 3 2 2 1 1 3 3 5 2 2 2 2 2 4 2 2 3 3 6 5 9 9 8 7 5 4 2
4 4 3 2 6 1 3 6 0 2 2 2 2 3 4 5 3 2 3 4 3 4 2 1 3 3 1 2 2 0 1 2 4 3 1 1 8 2 5 10 9 8 7 5 4
5 3 1 3 5 1 3 1 3 2 2 1 0 1 1 4 4 3 4 2 3 4 5 4 2 4 9 6 4 2 2 1 2 2 6 5 7 0 2 6 8 10 8 7 6
5 5 3 3 0 7 6 1 2 0 2 0 1 1 3 3 4 5 5 2 1 2 5 1 2 6 7 5 3 4 3 4 3 3 4 8 4 5 6 9 8 8 8 8 8
3 2 3 4 4 4 3 5 5 4 1 2 4 5 6 4 2 2 2 2 1 1 2 5 4 1 5 6 3 6 9 7 11 7 8 4 9 7 11 16 14 11 8 8 8
7 6 1 3 5 6 2 8 10 4 8 4 6 6 5 5 6 9 8 5 5 2 4 1 2 3 5 4 2 7 13 14 16 13 13 13 24 12 7 7 9 13 14 12 12
2 1 3 6 5 5 7 7 10 8 7 3 7 6 6 6 2 4 4 5 6 8 5 2 6 3 6 3 6 9 9 11 5 6 12 12 13 6 6 9 16 17 17 17 14
Wind_Direction
23 10 4 4 4 2 360 358 357 358 356 355 357 357 1 354 356 32 44 346 352 345 358 325 26 11 27 53 41 83 60 43 0 1 295 310 337 302 299 278 291 267 272 306 337
13 7 359 359 358 355 354 353 352 351 349 349 352 351 354 350 64 52 356 1 1 353 28 32 19 16 51 24 24 61 77 347 264 275 274 295 292 291 308 298 286 278 282 333 327
13 359 355 351 354 351 349 350 346 345 345 345 346 346 346 348 74 346 347 2 2 8 88 64 55 58 58 21 360 37 92 329 290 267 270 280 297 261 293 283 261 292 302 314 314
1 359 347 348 348 349 344 348 343 341 343 344 343 343 338 352 95 304 347 359 10 6 57 36 33 54 66 64 325 99 44 34 272 294 303 304 297 291 238 261 267 269 278 297 303
336 342 339 340 342 344 343 340 340 339 342 345 345 347 19 49 57 328 346 6 13 8 43 61 49 85 91 100 71 72 279 289 285 294 281 306 275 255 273 299 293 280 276 292 283
239 325 330 336 336 339 337 337 334 337 338 343 349 341 72 76 291 352 354 16 22 40 27 39 84 71 93 65 66 147 241 281 300 337 308 345 292 6 331 329 332 331 286 279 301
251 314 324 330 331 333 332 333 332 332 334 347 359 48 62 140 338 10 39 31 359 29 77 49 110 82 139 90 101 87 120 344 309 351 350 338 344 356 342 346 360 38 24 358 359
246 298 316 324 327 329 328 329 329 327 331 344 350 47 88 279 220 30 357 39 28 41 92 113 87 102 65 135 47 36 60 10 3 13 343 4 338 354 347 9 333 7 344 1 12
239 288 313 326 323 328 324 321 327 321 331 349 42 72 85 352 31 313 33 58 12 38 50 93 74 83 39 73 36 14 81 2 339 51 0 13 342 341 343 0 5 1 348 10 6
231 280 316 326 326 330 334 317 350 13 345 29 51 57 13 323 308 328 355 64 72 345 48 40 51 68 18 49 101 278 33 323 295 330 352 2 350 352 355 4 11 359 3 9 11
219 272 311 326 331 340 13 47 28 1 40 94 167 117 7 301 276 353 4 48 19 50 50 8 63 85 279 70 120 120 116 244 256 281 4 349 334 14 2 14 10 358 7 8 10
200 237 309 326 340 15 64 79 59 159 86 17 73 75 105 338 14 342 360 81 57 71 355 27 97 177 149 169 151 124 138 278 286 277 48 339 303 42 11 15 21 20 14 6 4
187 212 310 328 17 39 71 110 325 313 86 7 46 51 316 28 79 328 25 2 73 69 21 123 205 145 335 295 337 194 161 196 220 284 24 5 323 345 42 29 25 29 15 20 17
175 176 336 324 75 183 67 286 359 319 80 334 339 5 357 36 46 313 17 43 34 115 127 88 135 161 248 290 123 302 163 156 219 24 303 192 225 324 347 11 33 24 20 17 13
160 138 60 94 138 86 145 291 344 60 63 294 326 263 339 74 262 15 6 12 85 93 89 257 159 174 252 239 169 246 51 192 172 206 123 352 84 316 9 359 357 7 21 11 10
155 140 125 44 58 83 338 35 52 48 258 37 300 350 62 18 9 320 41 43 61 73 19 18 306 174 258 289 230 310 321 143 97 122 41 281 142 327 345 321 318 357 8 7 11
139 105 82 87 140 46 39 55 46 113 354 287 58 24 99 9 34 28 28 21 80 55 357 339 336 307 318 309 252 353 21 349 6 14 209 263 84 218 204 264 332 344 349 359 11
130 96 48 65 351 107 70 52 81 234 219 243 191 113 93 348 32 7 73 48 45 70 97 116 330 331 345 65 235 12 44 129 246 334 294 292 347 213 177 134 246 16 356 351 6
123 50 60 358 5 74 77 63 192 200 166 157 89 77 344 148 139 96 72 142 249 47 137 84 294 333 18 336 22 348 38 187 104 61 36 267 267 307 123 173 199 87 9 345 2
107 93 52 323 358 68 79 206 178 241 124 153 135 119 164 255 110 73 83 248 82 70 147 146 348 297 311 317 22 54 157 22 8 37 326 301 275 226 236 230 183 214 185 235 323
77 82 279 360 54 53 147 192 209 239 301 186 171 119 198 168 133 140 152 145 178 132 92 144 115 282 21 333 177 27 5 52 104 111 161 314 278 205 202 204 192 196 204 212 274
120 87 295 347 59 30 129 168 221 175 258 291 91 102 153 166 118 122 149 170 183 158 122 160 124 274 238 333 333 339 298 185 125 244 198 159 273 179 212 192 172 189 186 192 203
103 127 316 76 128 290 289 43 123 101 208 237 35 116 246 144 97 152 200 231 180 149 162 177 348 1 343 359 3 293 219 183 102 75 208 142 263 174 154 172 187 168 193 191 193
116 111 6 60 329 138 150 146 124 75 148 277 167 102 109 65 4 177 175 164 196 135 117 132 127 162 193 205 208 268 228 213 197 147 198 230 250 202 200 196 192 187 187 188 194
61 187 168 186 249 165 99 117 128 169 48 124 327 232 175 109 67 222 319 139 52 184 68 117 178 180 254 248 240 244 237 210 210 225 199 245 218 229 204 200 197 186 172 186 201
136 141 47 119 112 114 200 204 165 169 138 238 189 193 197 163 191 190 144 201 184 132 164 38 197 121 295 339 304 266 241 224 233 237 266 271 276 208 206 139 165 191 180 193 203
130 46 124 149 141 123 209 184 196 138 208 152 171 127 192 224 73 35 77 75 140 147 142 116 129 87 267 328 329 300 227 197 198 211 207 215 237 164 184 197 196 192 191 191 197